Regional Weather Roundup
Issued by NWS Kansas City/Pleasant Hill, MO

Home | Current Version | Previous Version | Graphics & Text | Print | Product List | Glossary Off
Versions: 1 2 3 4 5 6 7 8 9 10 11 12 13 14 15 16 17 18 19 20 21 22 23 24 25 26 27 28 29 30 31 32 33 34 35 36 37 38 39 40 41 42 43 44 45 46 47 48 49 50

000
ASUS43 KEAX 221210
RWREAX

WEATHER ROUNDUP FOR EASTERN KANSAS AND NORTHWEST MISSOURI
NATIONAL WEATHER SERVICE KANSAS CITY/PLEASANT HILL MO
600 AM CST MON JAN 22 2018

KSZ040-057-103>105-MOZ028-029-037-043-221300-
...KANSAS CITY METROPOLITAN AREA...

CITY           SKY/WX    TMP DP  RH WIND       PRES   REMARKS
K.C. INTL      CLOUDY    39  37  92 SW15      29.45R WCI  31
6HR MIN TEMP:  39; 6HR MAX TEMP:  54; 6HR PCP:  0.13;

K.C. DOWNTOWN  CLEAR     40  35  83 SW12      29.47R WCI  33
6HR MIN TEMP:  40; 6HR MAX TEMP:  58; 6HR PCP:  0.09;

LEES SUMMIT    CLEAR     40  36  86 SW17      29.49R WCI  31
6HR MIN TEMP:  40; 6HR MAX TEMP:  56; 6HR PCP:  0.01;

OLATHE - IXD   PTCLDY    36  34  92 S15       29.50R WCI  27
6HR MIN TEMP:  36; 6HR MAX TEMP:  52; 6HR PCP: TRACE;

OLATHE - OJC   PTCLDY    36  34  92 SW10G21   29.48R WCI  28
6HR MIN TEMP:  36; 6HR MAX TEMP:  54; 6HR PCP:  0.02;

LAWRENCE       CLOUDY    36  35  96 S10       29.48R WCI  28

$$

MOZ001>008-011>017-020>025-030>033-038>040-044>046-053-054-221300-
...NORTHERN AND CENTRAL MISSOURI...

CITY           SKY/WX    TMP DP  RH WIND       PRES   REMARKS
ST. JOSEPH     FOG       40  40 100 W8        29.42R VSB 3/4 WCI  34
6HR MIN TEMP:  39; 6HR MAX TEMP:  49; 6HR PCP:  0.10;

MOSBY          PTSUNNY   43  39  87 SW12      29.45R
WARRENSBURG    CLEAR     45  32  61 SW22G28   29.51R
WHITEMAN AFB   CLEAR     43  33  66 SW18      29.47R WCI  35
6HR MIN TEMP:  43; 6HR MAX TEMP:  56; 6HR PCP:  0.01;

CLINTON        PTCLDY    43  32  65 SW13      29.56R
SEDALIA        CLEAR     49  40  71 S14       29.52R
6HR MIN TEMP:  49; 6HR MAX TEMP:  58; 6HR PCP: TRACE;

WARSAW         NOT AVBL
CHILLICOTHE      N/A     50  44  80 S14G20    29.44R
6HR MIN TEMP:  50; 6HR MAX TEMP:  57;

KIRKSVILLE     MOCLDY    51  51 100 SE13      29.45F
6HR MIN TEMP:  50; 6HR MAX TEMP:  55; 6HR PCP:  0.06;


$$

MOZ041-047>049-056>058-063>065-088>090-097-221300-
...EASTERN AND SOUTHERN MISSOURI...

CITY           SKY/WX    TMP DP  RH WIND       PRES   REMARKS
ST. LOUIS INTL CLOUDY    54  54 100 S13       29.60F
6HR MIN TEMP:  54; 6HR MAX TEMP:  58; 6HR PCP:  0.76;

SPIRIT OF STL  CLOUDY    55  54  96 SE6       29.59S
COLUMBIA       CLOUDY    52  50  93 S14       29.53R
JEFFERSON CITY CLEAR     54  49  83 S9        29.55R
ROLLA          PTCLDY    50  49  96 S9        29.58S
SPRINGFIELD    CLEAR     44  33  65 SW16G24   29.61R
JOPLIN         CLEAR     40  31  70 SW18G35   29.62R WCI  31
WEST PLAINS    CLOUDY    50  46  86 S6        29.66S

$$

IAZ060-094-KSZ022-034>040-054-083-096-NEZ052-066-093-221300-
...KANSAS...SOUTHEAST NEBRASKA AND IOWA...

CITY           SKY/WX    TMP DP  RH WIND       PRES   REMARKS
TOPEKA         CLOUDY    38  34  85 SW7       29.46R WCI  33
6HR MIN TEMP:  36; 6HR MAX TEMP:  42; 6HR PCP: TRACE;

MANHATTAN      CLOUDY    35  33  92 SW7       29.44F FOG     WCI  29
EMPORIA        CLOUDY    35  32  88 S12       29.46F WCI  27
CHANUTE        CLOUDY    38  31  76 S15       29.55S WCI  29
WICHITA        CLOUDY    38  31  76 W17       29.51S WCI  28
OMAHA          SLEET     36  33  89 N12       29.44F FOG     WCI  28
LINCOLN        CLOUDY    34  33  96 N23G33    29.45F WCI  22
FALLS CITY     CLOUDY    37  36  96 W7        29.41R FOG     WCI  32
LAMONI         FOG       43  42  97 S3        29.37F VSB 1/4
DES MOINES     CLOUDY    40  38  93 NE14      29.41S WCI  32

$$




USA.gov is the U.S. government's official web portal to all federal, state and local government web resources and services.